This demonstration page uses our WeatherBlox Daily Observations layout. Learn more.

Left ArrowRight Arrow

39.51506, -84.39828

Hourly Observations for October 28, 2018

Temp ( °F °C ) Dew Point ( °F °C ) Humidity (%) Winds ( mph kmh ) Pressure ( in mb ) Visibility ( mi km ) Precip ( " mm )
12:15 am 00:15 Cloudy 45 7.1 43 6.2 94 94 W 3 6 29.91 1013 7 11.26538 0 0
12:35 am 00:35 Cloudy 45 7.2 43 6.3 94 94 Calm 29.94 1014 7 11.26538 0 0
12:55 am 00:55 Cloudy 45 7.2 44 6.6 96 96 W 3 6 29.94 1014 7 11.26538 0 0
1:15 am 01:15 Cloudy 45 7.1 44 6.5 96 96 Calm 29.91 1013 7 11.26538 0 0
1:35 am 01:35 Cloudy 45 7.2 44 6.4 95 95 WSW 3 6 29.91 1013 7 11.26538 0 0
1:55 am 01:55 Cloudy 45 7.2 43 6.3 94 94 Calm 29.91 1013 7 11.26538 0 0
2:15 am 02:15 Mostly Cloudy with Mist and Fog 44 6.4 43 5.9 97 97 SW 5 7 29.91 1013 4 6.43736 0 0
2:35 am 02:35 Cloudy with Mist and Fog 44 6.4 43 6.1 98 98 SW 3 6 29.91 1013 3.5 5.63269 0 0
2:55 am 02:55 Cloudy 45 7.1 44 6.5 96 96 SW 5 7 29.91 1013 7 11.26538 0 0
3:15 am 03:15 Cloudy 45 7.3 44 6.4 94 94 SW 5 7 29.91 1013 7 11.26538 0 0
3:35 am 03:35 Partly Cloudy with Mist and Fog 43 6.2 42 5.5 95 95 SW 6 9 29.91 1013 7 11.26538 0 0
3:55 am 03:55 Clear with Mist and Fog 42 5.3 41 4.8 97 97 SW 3 6 29.91 1013 5 8.0467 0 0
4:15 am 04:15 Cloudy with Mist and Fog 42 5.5 41 5.2 98 98 Calm 29.91 1013 1.75 2.816345 0 0
4:35 am 04:35 Cloudy with Mist and Fog 42 5.6 42 5.5 99 99 SW 3 6 29.91 1013 3 4.82802 0 0
4:55 am 04:55 Mostly Cloudy with Mist and Fog 41 5 41 4.8 99 99 Calm 29.91 1013 4 6.43736 0 0
5:15 am 05:15 Mostly Cloudy with Mist and Fog 40 4.7 40 4.5 99 99 SW 5 7 29.91 1013 2 3.21868 0 0
5:35 am 05:35 Mostly Cloudy with Fog 38 3.6 38 3.4 99 99 Calm 29.91 1013 0.25 0.402335 0 0
5:55 am 05:55 Mostly Cloudy with Fog 38 3.6 38 3.5 99 99 Calm 29.94 1014 0.25 0.402335 0 0
6:15 am 06:15 Mostly Cloudy with Fog 39 3.8 39 3.7 99 99 SW 5 7 29.91 1013 0.25 0.402335 0 0
6:35 am 06:35 Mostly Cloudy with Fog 38 3.4 38 3.3 99 99 SSW 3 6 29.91 1013 0.5 0.80467 0 0
6:55 am 06:55 Mostly Cloudy with Fog 37 3 37 2.9 99 99 SW 3 6 29.91 1013 0.5 0.80467 0 0
7:15 am 07:15 Clear with Mist and Fog 40 4.3 40 4.2 99 99 SW 3 6 29.91 1013 3 4.82802 0 0
7:35 am 07:35 Clear with Mist and Fog 40 4.2 39 4.1 99 99 SW 3 6 29.91 1013 3.5 5.63269 0 0
7:55 am 07:55 Clear with Mist and Fog 40 4.2 39 4 99 99 SSW 5 7 29.91 1013 2 3.21868 0 0
8:15 am 08:15 Partly Cloudy with Mist and Fog 41 5 41 4.9 99 99 SW 6 9 29.91 1013 3 4.82802 0 0
8:35 am 08:35 Cloudy with Mist and Fog 42 5.8 42 5.6 99 99 S 3 6 29.88 1012 5 8.0467 0 0
8:55 am 08:55 Partly Cloudy with Mist and Fog 44 6.4 42 5.8 96 96 S 6 9 29.88 1012 7 11.26538 0 0
9:15 am 09:15 Cloudy with Mist and Fog 44 6.8 43 5.9 94 94 S 6 9 29.88 1012 7 11.26538 0 0
9:35 am 09:35 Cloudy 45 7 42 5.8 92 92 S 6 9 29.88 1012 7 11.26538 0 0
9:55 am 09:55 Cloudy 45 7.4 43 5.9 90 90 S 5 7 29.88 1012 7 11.26538 0 0
10:15 am 10:15 Cloudy 47 8.1 43 6 87 87 SSW 7 11 29.85 1011 10 16.0934 0 0
10:35 am 10:35 Cloudy with Light Rain 47 8.5 43 6.2 86 86 S 12 19 29.85 1011 7 11.26538 0 0
10:55 am 10:55 Cloudy 48 9.1 44 6.9 86 86 SSE 10 17 29.83 1010 10 16.0934 0 0
11:15 am 11:15 Mostly Cloudy 50 10.2 45 7.1 81 81 S 10 17 29.8 1009 10 16.0934 0 0
11:35 am 11:35 Cloudy 51 10.8 45 7.3 79 79 S 16 26 29.77 1008 10 16.0934 0 0
11:55 am 11:55 Cloudy 52 10.9 46 7.7 81 81 S 13 20 29.77 1008 10 16.0934 0 0
12:15 pm 12:15 Cloudy 53 11.6 47 8.1 79 79 S 16 26 29.71 1006 10 16.0934 0 0
12:35 pm 12:35 Cloudy with Rain 52 11.3 47 8.3 82 82 S 16 26 29.74 1007 10 16.0934 0 0
12:55 pm 12:55 Cloudy with Light Rain 52 11.2 47 8.6 84 84 S 12 19 29.71 1006 10 16.0934 0 0
1:15 pm 13:15 Cloudy with Light Rain 53 11.9 48 8.9 82 82 S 12 19 29.68 1005 10 16.0934 0 0
1:35 pm 13:35 Cloudy 54 12.1 48 9 82 82 SSW 12 19 29.71 1006 10 16.0934 0 0
1:55 pm 13:55 Cloudy 56 13.1 48 8.9 76 76 SSW 18 30 29.65 1004 10 16.0934 0 0
2:15 pm 14:15 Cloudy 56 13.5 48 9.1 75 75 SW 21 33 29.65 1004 10 16.0934 0 0
2:35 pm 14:35 Cloudy 58 14.4 49 9.5 73 73 SW 16 26 29.65 1004 10 16.0934 0 0
2:55 pm 14:55 Mostly Cloudy 60 15.7 49 9.4 66 66 WSW 17 28 29.62 1003 10 16.0934 0 0
3:15 pm 15:15 Mostly Cloudy 62 16.4 48 8.7 61 61 WSW 16 26 29.62 1003 10 16.0934 0 0
3:35 pm 15:35 Partly Cloudy 61 16.3 46 7.7 57 57 WSW 24 39 29.62 1003 10 16.0934 0 0
3:55 pm 15:55 Mostly Cloudy 62 16.4 45 7.2 55 55 WSW 15 24 29.62 1003 10 16.0934 0 0
4:15 pm 16:15 Partly Cloudy 63 17 37 3 39 39 W 17 28 29.62 1003 10 16.0934 0 0
4:35 pm 16:35 Cloudy 61 15.9 34 1.2 37 37 W 21 33 29.65 1004 10 16.0934 0 0
4:55 pm 16:55 Cloudy 59 15.2 36 2 41 41 W 10 17 29.65 1004 10 16.0934 0 0
5:15 pm 17:15 Cloudy with Light Rain 57 14.1 38 3.6 49 49 W 17 28 29.68 1005 10 16.0934 0 0
5:35 pm 17:35 Cloudy with Light Rain 52 10.9 44 6.9 77 77 WNW 14 22 29.74 1007 10 16.0934 0.01 0.254
5:55 pm 17:55 Cloudy 51 10.6 44 6.5 76 76 W 17 28 29.77 1008 10 16.0934 0.01 0.254
6:15 pm 18:15 Cloudy with Light Rain 50 10.2 43 6 75 75 W 21 33 29.77 1008 10 16.0934 0 0
6:35 pm 18:35 Cloudy 51 10.4 41 5.2 70 70 W 18 30 29.8 1009 10 16.0934 0 0
6:50 pm 18:50 Cloudy 51 10.4 41 5.1 70 70 W 21 33 29.8 1009 10 16.0934 0 0
7:15 pm 19:15 Cloudy 51 10.5 41 5.2 70 70 W 18 30 29.83 1010 10 16.0934 0 0
7:35 pm 19:35 Cloudy 51 10.5 42 5.3 70 70 W 17 28 29.83 1010 10 16.0934 0 0
7:55 pm 19:55 Cloudy 51 10.3 42 5.6 73 73 W 13 20 29.83 1010 10 16.0934 0 0
8:10 pm 20:10 Cloudy 51 10.4 42 5.5 72 72 W 13 20 29.83 1010 10 16.0934 0 0
8:35 pm 20:35 Cloudy 51 10.6 42 5.5 71 71 W 15 24 29.83 1010 10 16.0934 0 0
8:55 pm 20:55 Cloudy 51 10.6 42 5.4 70 70 W 16 26 29.85 1011 10 16.0934 0 0
9:15 pm 21:15 Cloudy 51 10.7 42 5.4 70 70 W 16 26 29.85 1011 10 16.0934 0 0
9:35 pm 21:35 Cloudy 51 10.5 42 5.4 71 71 W 18 30 29.85 1011 10 16.0934 0 0
9:55 pm 21:55 Cloudy 50 10.2 42 5.7 74 74 W 22 35 29.85 1011 10 16.0934 0 0
10:15 pm 22:15 Cloudy 50 10 42 5.8 75 75 W 13 20 29.85 1011 10 16.0934 0 0
10:35 pm 22:35 Cloudy 50 9.9 43 6 77 77 W 17 28 29.88 1012 10 16.0934 0 0
10:55 pm 22:55 Cloudy 50 9.8 43 6 77 77 W 17 28 29.88 1012 10 16.0934 0 0
11:15 pm 23:15 Cloudy 50 9.8 43 5.9 77 77 WSW 16 26 29.88 1012 10 16.0934 0 0
11:35 pm 23:35 Cloudy 49 9.7 43 6 78 78 W 15 24 29.88 1012 10 16.0934 0 0
11:55 pm 23:55 Cloudy 50 9.9 42 5.6 75 75 WNW 14 22 29.91 1013 10 16.0934 0 0

Powered by AerisWeather